Location: Sternwarte auf dem Internationalen Platz Vogelsang IP
(50.5721°N, 6.4398°E)
Time: 19:47:40
(UTC+01:00)

A-11 Canister half - Pass Details

Date: 19 December 2025
Orbit: 1511 x 1688 km, 47.2° (Epoch: 19 January)

Event Time Altitude Azimuth Distance (km) Brightness Sun altitude
Rises 19:09:36 0° 283° (WNW) 4,708 12.7 -23.8°
Reaches altitude 10° 19:12:42 10° 279° (W) 3,743 12.0 -24.3°
Maximum altitude 19:21:47 53° 207° (SSW) 1,906 9.6 -25.7°
Enters shadow 19:28:35 20° 140° (SE) 3,106 10.3 -26.8°
Drops below altitude 10° 19:31:11 10° 134° (SE) 3,870 - -27.2°
Sets 19:34:27 0° 130° (SE) 4,876 - -27.7°
